Regional Weather Roundup
Issued by NWS

Home | Current Version | Previous Version | Text Only | Print | Product List | Glossary Off
Versions: 1 2 3 4 5 6 7 8 9 10 11 12 13 14 15 16 17 18 19 20 21 22 23 24 25 26 27 28 29 30 31 32 33 34 35 36 37 38 39 40 41 42 43 44 45 46 47 48 49 50

523
ASUS44 KJAN 210203
RWRMS

MISSISSIPPI HOURLY WEATHER ROUNDUP
NATIONAL WEATHER SERVICE JACKSON MS
800 PM CST SAT DEC 20 2014

NOTE: "FAIR: INDICATES FEW OR NO CLOUDS BELOW 12,000 FEET WITH NO
SIGNIFICANT WEATHER AND/OR OBSTRUCTIONS TO VISIBILITY.

MSZ001>002-007>008-010>013-018>021-025>028-034>036-210300-
NORTHWEST MISSISSIPPI

CITY           SKY/WX    TMP DP  RH WIND       PRES   REMARKS
CLARKSDALE     FAIR      39  37  93 N7        30.24S WCI  34
CLEVELAND      FAIR      42  40  92 N6        30.22S
GREENWOOD      CLEAR     40  36  86 CALM      30.21R
GREENVILLE     CLEAR     41  38  89 N7        30.22R
GRENADA        FAIR      37  36  93 CALM      30.23R
OLIVE BRANCH   CLEAR     37  36  93 N5        30.24R WCI  34
OXFORD         FAIR      36  32  87 CALM      30.24S
TUNICA         CLEAR     37  36  93 N7        30.25S WCI  32
$$

MSZ003>006-009-014>017-022>024-029>033-037>039-210300-
NORTHEAST MISSISSIPPI

CITY           SKY/WX    TMP DP  RH WIND       PRES   REMARKS
COLUMBUS AFB   CLEAR     38  36  92 N2        30.21
CORINTH        FAIR      41  30  65 N5        30.24R
GOLDN TRIANGLE CLEAR     43  36  75 N6        30.20
STARKVILLE     FAIR      41  36  81 CALM      30.20S
TUPELO         CLEAR     37  33  85 NE7       30.23R WCI  32
$$

MSZ040-058-210300-
CENTRAL MISSISSIPPI

CITY           SKY/WX    TMP DP  RH WIND       PRES   REMARKS
JACKSON INTL   PTCLDY    41  39  93 E3        30.18F
JACKSON HAWKNS PTCLDY    47  40  76 NE3       30.19R
MERIDIAN KEY   PTCLDY    40  39  97 CALM      30.19S
MERIDIAN NAS   PTCLDY    41  39  93 CALM      30.20R
RAYMOND        FAIR      41  37  87 CALM      30.19S HAZE
VICKSBURG      CLEAR     45  39  79 N7        30.20S
$$

MSZ059>079-210300-
SOUTH MISSISSIPPI

CITY           SKY/WX    TMP DP  RH WIND       PRES   REMARKS
HATTIESBURG    CLOUDY    52  45  77 N7        30.17S
MCCOMB         MOCLDY    48  43  82 CALM      30.17R
NATCHEZ        MOCLDY    45  39  81 NE5       30.18S
PINE BELT      CLOUDY    50  43  76 NE6       30.18S
$$

MSZ080>082-210300-
COASTAL MISSISSIPPI

CITY           SKY/WX    TMP DP  RH WIND       PRES   REMARKS
BILOXI         MOCLDY    51  49  91 NE10      30.13F
PASCAGOULA     CLOUDY    51  48  89 N9        30.14F
GULFPORT       CLOUDY    51  47  86 N12       30.13F
$$



USA.gov is the U.S. government's official web portal to all federal, state and local government web resources and services.